CAPE
0 0 0 0 0 0 0 0 0 0 0 0 0 0 0 0 0 0 0 0 0 0 0 0 0 0 0 0 0 0 0 0 0 0 0 0 0 0 0 1781 3250 3101 3094 3197 2995 3219 3022 2910 2850 2709 2573 2444 2265 2057 2029 1999 1950 1934 1865 1622 1482 1669 1642 1594 1662 1512 1492 1594 1478 1538 1499 1457 1186 1064 1048 872 663 611 618 684 720 810 1002 777 760 777
0 0 0 0 0 0 0 0 0 0 0 0 0 0 0 0 0 0 0 0 0 0 0 0 0 0 0 0 0 0 0 0 0 0 0 0 0 0 0 408 2776 2966 3170 3065 2877 3152 2975 2888 2884 2741 2614 2486 2279 2185 2085 2010 1982 1895 1776 1509 1458 1755 1598 1636 1676 1577 1536 1569 1465 1462 1467 1356 1294 1256 1085 953 831 742 687 686 743 815 998 885 732 671
0 0 0 0 0 0 0 0 0 0 0 0 0 0 0 0 0 0 0 0 0 0 0 0 0 0 0 0 0 0 0 0 0 0 0 0 0 0 0 78 2676 2990 3084 2873 2671 3037 2921 2961 2905 2756 2524 2343 2268 2225 2127 2050 1975 1821 1627 1412 1384 1778 1601 1674 1744 1679 1651 1532 1426 1463 1374 1321 1315 1308 1139 1124 1035 904 836 772 826 811 821 718 687 735
0 0 0 0 0 0 0 0 0 0 0 0 0 0 0 0 0 0 0 0 0 0 0 0 0 0 0 0 0 0 0 0 0 0 0 0 0 0 0 0 2601 3029 2986 2823 2803 2943 2844 2826 2731 2515 2356 2336 2275 2103 2074 2044 1990 1828 1597 1397 1467 1727 1655 1711 1737 1700 1651 1540 1398 1429 1435 1271 1349 1323 1209 1170 1151 1065 915 803 756 856 843 752 713 735
0 0 0 0 0 0 0 0 0 0 0 0 0 0 0 0 0 0 0 0 0 0 0 0 0 0 0 0 0 0 0 0 0 0 0 0 0 0 0 63 2756 2899 2911 2824 2764 2808 2745 2728 2607 2400 2421 2286 2200 2142 2159 2112 1992 1820 1588 1434 1645 1665 1653 1680 1741 1655 1587 1517 1414 1394 1380 1258 1115 1329 1278 1127 1102 1104 1007 915 921 890 800 728 692 625
0 0 0 0 0 0 0 0 0 0 0 0 0 0 0 0 0 0 0 0 0 0 0 0 0 0 0 0 0 0 0 0 0 0 0 0 0 0 0 187 2550 2833 2862 2757 2671 2722 2692 2647 2535 2385 2406 2281 2183 2177 2230 2093 1987 1805 1509 1629 1643 1593 1556 1615 1676 1551 1489 1439 1445 1408 1316 1225 966 1173 1292 1185 1077 1020 975 938 957 947 666 821 686 545
0 0 0 0 0 0 0 0 0 0 0 0 0 0 0 0 0 0 0 0 0 0 0 0 0 0 0 0 0 0 0 0 0 0 0 0 0 0 0 366 2265 2674 2746 2647 2603 2688 2663 2602 2478 2381 2338 2221 2131 2162 2138 2020 1979 1693 1470 1709 1634 1418 1452 1546 1577 1550 1516 1406 1330 1322 1256 1164 992 961 1093 1049 950 929 844 859 927 833 669 696 716 782
0 0 0 0 0 0 0 0 0 0 0 0 0 0 0 0 0 0 0 0 0 0 0 0 0 0 0 0 0 0 0 0 0 0 0 0 0 0 0 592 1841 2415 2520 2479 2566 2625 2561 2485 2402 2386 2274 2189 2075 2057 2011 1993 1925 1645 1588 1656 1602 1426 1468 1436 1463 1528 1458 1392 1288 1197 1172 1021 1029 900 940 926 925 872 825 798 779 700 690 753 646 513
0 0 0 0 0 0 0 0 0 0 0 0 0 0 0 0 0 0 0 0 0 0 0 0 0 0 0 0 0 0 0 0 0 0 0 0 0 0 0 1152 2065 2210 2334 2394 2498 2541 2493 2407 2342 2342 2210 2114 2058 2053 2066 2050 1871 1776 1658 1645 1727 1475 1459 1428 1490 1529 1489 1339 1241 1139 946 1000 998 955 910 859 791 812 742 714 705 687 625 568 509 481
0 0 0 0 0 0 0 0 0 0 0 0 0 0 0 0 0 0 0 0 0 0 0 0 0 0 0 0 0 0 0 0 0 0 0 0 0 0 0 1787 2297 2261 2303 2397 2451 2446 2437 2383 2340 2337 2218 2113 2080 2046 2053 1992 1880 1771 1681 1700 1793 1592 1234 1506 1496 1542 1518 1449 1244 1150 1001 973 970 878 802 693 666 696 647 602 621 639 619 571 502 460
0 3 0 0 0 0 0 0 0 0 0 0 0 0 0 0 8 12 10 1 0 0 0 0 0 0 0 0 0 0 0 0 0 0 0 0 0 0 0 1800 2294 2313 2319 2392 2453 2376 2316 2315 2361 2318 2233 2180 2089 2070 2039 1986 1959 1895 1704 1884 1799 1574 1328 1565 1569 1541 1536 1450 1264 1071 1014 999 941 797 706 714 611 554 544 514 510 518 563 524 485 431
0 0 0 0 0 0 0 4 3 0 0 0 1 0 0 0 3 33 31 23 23 0 0 0 0 0 0 0 0 0 0 0 0 0 0 0 0 0 318 1742 2166 2309 2326 2331 2415 2347 2272 2273 2326 2323 2246 2107 2030 1997 2015 2056 2022 1821 1753 1812 1732 1475 1421 1613 1663 1546 1593 1472 1287 1086 1004 996 902 718 617 680 621 595 577 562 418 118 436 456 454 466
0 0 0 0 0 0 0 1 2 0 0 16 16 6 1 0 21 30 45 32 14 0 0 0 0 0 0 0 0 0 0 0 0 0 0 0 0 0 712 1704 2097 2320 2290 2207 2285 2278 2244 2237 2315 2336 2260 2170 2039 2018 2024 2031 1899 1718 1796 1748 1715 1704 1640 1647 1737 1655 1649 1536 1360 1166 1063 1012 914 776 642 650 563 532 557 543 399 172 360 466 492 475
0 0 0 0 0 0 0 0 5 4 3 26 16 8 1 0 4 24 21 19 0 0 0 0 0 0 0 0 0 0 0 0 0 0 0 0 0 0 814 1665 2045 2232 2140 2196 2204 2170 2195 2252 2331 2313 2281 2164 2099 2034 2051 2001 1856 1785 1776 1665 1717 1766 1733 1660 1749 1662 1648 1596 1475 1316 1137 955 856 718 682 618 534 490 517 511 368 34 380 459 455 396
2 8 0 0 0 0 4 8 1 0 24 24 5 4 0 0 1 8 12 4 0 0 0 0 0 0 0 0 0 0 0 0 0 0 0 0 0 0 979 1514 1830 2135 2059 2073 2105 2172 2183 2287 2311 2289 2228 2129 2125 2104 2071 1964 1820 1857 1780 1555 1606 1709 1721 1642 1677 1644 1542 1519 1471 1322 1137 914 820 723 651 585 553 520 583 563 187 187 372 379 365 371
5 0 0 0 0 12 5 6 0 6 38 42 12 5 0 0 0 0 0 0 0 0 0 0 0 0 0 0 0 0 0 0 0 0 0 0 0 0 774 1342 1511 1918 2060 2103 2131 2128 2241 2324 2303 2241 2160 2134 2145 2143 2065 1947 1912 1908 1789 1472 1485 1671 1671 1614 1605 1593 1511 1358 1250 1113 969 862 752 645 630 616 592 592 542 234 7 236 364 348 346 314
66 4 2 8 1 6 4 0 0 22 34 32 16 4 0 0 0 0 3 0 1 1 0 0 0 0 0 0 0 0 0 0 0 0 0 0 0 0 463 1144 1282 1623 2013 2075 2130 2111 2236 2272 2207 2138 2084 2109 2134 2091 1989 1918 1970 1900 1755 1530 1459 1634 1560 1560 1524 1495 1374 1183 1098 1053 965 784 660 584 584 604 563 462 161 9 2 375 370 334 248 88
1 0 4 14 1 0 28 20 32 40 17 34 10 6 0 0 0 0 10 20 37 12 0 0 0 0 0 0 0 0 0 0 0 0 0 0 0 0 156 1015 1183 1227 1928 2102 2130 2093 2141 2148 2113 2071 2075 2082 2083 2013 1970 1945 1982 1894 1686 1503 1376 1558 1525 1464 1435 1373 1256 1109 984 947 870 769 690 645 672 684 567 165 19 1 271 378 334 260 172 0
8 2 0 0 12 42 23 35 39 52 38 31 15 16 12 22 18 7 18 28 26 3 0 0 0 0 0 0 0 0 0 0 0 0 0 0 0 0 0 739 818 1198 1690 1950 1977 2020 2042 2029 1994 1963 1958 1969 1941 1915 1901 1931 1960 1822 1578 1313 1198 1403 1471 1398 1373 1308 1171 1012 923 904 821 814 762 777 814 766 665 466 299 0 348 340 331 253 180 16
0 1 20 15 20 60 37 45 67 48 42 24 12 15 11 18 24 25 5 14 17 1 0 0 0 0 0 0 0 0 0 0 0 0 0 0 0 0 0 662 847 1327 1546 1736 1839 1920 1982 1944 1923 1834 1824 1826 1827 1842 1835 1835 1859 1888 1685 1285 1169 1293 1335 1260 1190 1105 982 847 949 916 758 767 771 815 764 720 731 587 64 0 0 331 284 230 129 32
0 8 6 7 7 33 27 14 36 36 56 53 26 15 16 13 22 30 26 23 6 9 0 2 0 0 0 0 0 0 0 0 0 0 0 0 0 0 0 446 1062 1374 1525 1580 1664 1742 1874 1836 1811 1774 1753 1680 1660 1690 1781 1856 1867 1727 1513 1314 1254 1241 1235 1136 1083 1144 1082 867 958 984 871 878 910 823 649 616 647 35 0 0 189 330 291 138 21 0
2 3 5 7 7 0 0 4 38 63 78 82 32 14 18 20 36 35 41 18 7 7 2 0 0 0 0 0 0 0 0 0 0 0 0 0 0 0 45 1002 1138 1349 1530 1686 1851 1815 1805 1830 1789 1742 1726 1605 1572 1669 1865 1859 1806 1636 1482 1409 1436 1420 1327 1119 1177 1148 1090 902 896 933 951 993 950 754 533 608 418 346 386 370 6 320 224 0 0 0
1 2 10 15 1 0 17 32 78 68 81 40 34 21 28 23 27 18 17 14 4 6 2 0 0 0 0 0 0 0 0 0 0 0 0 0 0 19 196 1163 1255 1314 1572 1786 1922 1868 1851 1872 1793 1762 1681 1646 1604 1691 1811 1805 1756 1649 1550 1527 1554 1460 1346 1208 1230 1144 1026 868 830 892 884 902 790 546 529 428 442 453 451 381 326 288 0 0 0 0
29 24 7 7 0 4 6 21 48 34 34 30 30 43 59 31 29 19 17 20 11 10 3 1 0 0 0 54 0 0 0 0 0 0 0 0 0 37 592 1150 1276 1445 1647 1823 1910 1907 1952 1927 1865 1767 1682 1620 1526 1597 1702 1649 1584 1606 1609 1608 1568 1456 1311 1338 1282 1176 1043 906 847 880 891 870 649 460 567 498 507 474 449 376 324 0 0 0 0 0
18 0 6 11 3 0 14 13 14 10 14 26 44 66 47 41 37 27 24 64 25 21 1 0 4 6 0 44 0 0 37 2 0 0 0 0 0 380 805 1077 1408 1630 1660 1706 1912 2040 2051 1956 1842 1750 1628 1566 1470 1473 1608 1551 1516 1451 1495 1511 1414 1267 1426 1411 1325 1232 1093 902 902 941 887 676 464 515 614 480 509 493 460 390 238 0 0 0 0 0
89 2 2 7 4 1 0 0 0 3 18 28 52 61 45 27 48 43 40 34 26 37 7 0 5 7 98 6 1 34 53 49 20 0 0 0 118 860 1194 1470 1690 1648 1700 1808 1967 2065 2025 1916 1809 1657 1579 1496 1419 1394 1488 1454 1349 1369 1430 1370 1284 1311 1507 1457 1335 1256 1070 963 949 870 690 572 478 495 568 502 533 507 489 388 189 0 0 0 0 0
48 68 10 0 2 2 2 0 0 8 16 82 74 68 58 39 38 34 22 23 28 27 22 13 0 45 104 18 15 5 6 8 0 2 0 139 718 1230 1483 1627 1722 1665 1710 1879 1995 2019 1953 1838 1751 1584 1481 1460 1394 1410 1424 1379 1308 1307 1270 1224 1297 1350 1501 1454 1418 1320 1156 1080 952 832 759 654 502 340 380 522 551 530 475 403 152 0 0 0 0 0
176 0 0 0 2 8 3 6 13 43 44 97 108 62 23 33 43 33 19 14 21 30 121 156 45 58 113 22 15 6 0 0 0 296 305 692 1072 1389 1601 1702 1737 1758 1765 1857 1966 2003 1917 1781 1651 1511 1452 1392 1326 1382 1427 1349 1270 1370 1236 1234 1331 1337 1431 1477 1436 1319 1150 1057 958 882 790 791 684 474 408 534 556 544 480 367 0 0 0 0 0 0
0 0 4 28 24 5 18 1 5 18 62 107 86 94 50 43 36 39 28 22 42 36 112 187 178 313 443 478 566 473 458 1 0 670 679 936 1134 1362 1567 1728 1780 1727 1744 1800 1927 1972 1888 1733 1616 1483 1406 1321 1250 1327 1443 1330 1288 1353 1359 1146 1302 1228 1396 1427 1430 1354 1130 1018 949 886 866 945 912 662 572 537 553 484 409 140 0 0 0 0 0 0
71 6 40 28 33 46 42 5 6 6 46 76 96 47 50 23 58 56 162 116 253 271 175 174 276 289 320 442 441 498 670 517 373 748 817 896 1041 1264 1548 1702 1768 1742 1705 1762 1844 1903 1844 1764 1620 1483 1382 1296 1239 1247 1372 1269 1289 1311 1376 1259 1200 1272 1349 1327 1278 1218 1118 989 855 839 890 983 943 764 699 601 554 467 374 217 0 0 0 0 0 0
1 0 0 36 13 8 10 8 19 13 24 63 47 12 11 42 39 96 167 31 56 197 88 23 150 137 248 470 466 757 461 57 29 852 818 888 990 1260 1482 1563 1656 1720 1698 1669 1704 1777 1793 1760 1707 1589 1468 1331 1277 1290 1277 1300 1308 1362 1370 1283 1250 1230 1316 1267 1202 1160 1120 1018 902 800 869 977 908 804 679 649 568 470 350 328 0 0 0 0 0 0
19 3 20 7 9 1 0 0 23 35 39 25 57 41 39 29 7 186 104 31 30 5 17 42 229 268 340 462 676 853 660 483 423 820 756 812 971 1186 1345 1402 1481 1604 1614 1608 1643 1726 1761 1751 1689 1634 1505 1362 1289 1280 1292 1338 1342 1452 1451 1381 1364 1273 1288 1238 1183 1173 1144 1070 986 879 926 1001 878 677 594 640 553 470 373 295 70 0 0 0 0 0
22 15 0 0 6 7 0 16 10 6 24 72 61 24 2 23 46 12 29 22 7 95 33 11 156 319 228 378 585 798 866 686 608 680 648 685 771 871 1012 1220 1288 1322 1383 1468 1531 1597 1684 1726 1672 1611 1513 1369 1279 1236 1287 1330 1443 1514 1515 1436 1362 1298 1210 1151 1110 1111 1086 1034 973 882 903 907 756 506 583 635 526 436 399 307 49 0 0 0 0 0
182 0 4 3 5 6 4 22 0 12 51 66 25 0 7 1 38 20 8 14 43 12 6 40 304 330 178 172 251 711 700 584 576 598 624 658 654 581 662 1012 1296 1375 1363 1418 1524 1557 1553 1605 1683 1617 1526 1409 1268 1213 1212 1344 1427 1548 1546 1453 1376 1302 1190 1081 1068 1028 987 914 848 815 895 960 591 489 616 622 495 395 396 357 258 0 0 0 0 0
77 9 38 19 8 6 13 18 2 3 49 35 17 0 0 2 0 2 23 3 1 26 10 36 218 162 124 163 300 635 751 668 402 526 531 524 499 504 531 562 878 1199 1323 1420 1462 1516 1545 1634 1704 1639 1522 1382 1289 1208 1222 1300 1522 1571 1528 1493 1405 1315 1184 1066 1051 1059 953 876 789 791 939 858 507 500 624 598 459 389 340 393 342 214 0 0 0 0
8 1 5 1 28 7 16 20 3 5 21 34 27 0 0 0 0 0 8 0 9 57 41 20 149 59 68 316 552 619 600 720 500 544 372 182 512 535 778 735 705 1002 1158 1114 1224 1278 1542 1632 1751 1700 1565 1402 1290 1230 1213 1286 1495 1560 1560 1506 1443 1350 1284 1216 1193 1118 1003 934 868 913 798 537 408 538 632 548 423 384 346 360 348 240 57 0 0 17
0 10 2 9 21 29 8 20 12 26 7 27 39 38 0 0 0 10 15 5 0 3 0 12 7 18 212 378 490 530 502 633 550 346 548 513 500 424 172 1130 948 1116 1300 1335 1405 1455 1587 1637 1731 1707 1598 1451 1306 1244 1293 1322 1448 1558 1563 1531 1458 1384 1332 1284 1220 1137 1015 903 900 798 574 399 432 520 640 575 457 339 327 294 230 101 80 60 45 27
180 0 6 4 11 28 0 1 7 24 16 19 53 12 2 0 0 7 12 10 0 0 6 3 30 243 375 426 370 436 412 590 580 262 292 525 590 826 770 923 1217 1282 1504 1653 1616 1590 1672 1728 1701 1674 1557 1473 1398 1314 1320 1336 1381 1448 1456 1473 1426 1358 1321 1277 1214 1153 1058 1000 866 767 602 452 475 552 602 516 464 390 310 261 115 114 81 72 55 37
180 2 0 0 0 4 11 9 5 14 2 1 12 0 0 74 1 0 0 0 0 0 4 112 202 343 370 224 152 377 532 490 655 378 435 439 766 901 1140 1383 1444 1300 1479 1635 1710 1681 1733 1750 1712 1638 1486 1401 1298 1319 1311 1334 1359 1391 1471 1472 1456 1376 1319 1314 1291 1192 1085 910 778 726 679 515 410 505 518 452 440 420 345 258 214 224 159 57 75 68
30 0 1 0 0 13 17 17 2 0 0 120 544 569 153 130 3 0 0 0 14 264 47 56 293 324 231 456 695 630 565 554 488 620 617 346 586 767 1041 1425 1647 1573 1570 1596 1626 1668 1720 1742 1677 1531 1461 1374 1328 1256 1297 1346 1342 1366 1411 1368 1399 1389 1368 1306 1234 1092 921 792 831 833 768 669 496 416 355 476 486 462 456 434 360 211 129 126 134 162
0 0 5 0 0 6 7 10 2 0 1 346 542 592 428 162 0 0 0 0 476 335 33 151 366 447 640 710 709 711 572 645 489 560 664 506 560 653 849 1376 1655 1602 1602 1601 1624 1644 1649 1649 1532 1417 1438 1393 1373 1302 1291 1245 1276 1326 1349 1363 1330 1302 1306 1214 1056 935 838 724 737 852 880 779 623 520 539 508 442 492 399 280 214 150 109 147 153 109
1 0 0 0 0 2 2 6 4 18 138 497 678 548 218 0 0 0 362 605 594 402 579 404 492 491 488 514 765 1100 1000 578 521 708 929 727 687 1075 1618 1724 1617 1561 1591 1584 1615 1604 1584 1538 1428 1369 1382 1378 1319 1294 1250 1222 1265 1274 1276 1297 1308 1290 1211 1133 931 852 850 791 809 899 892 805 642 615 596 488 387 328 309 289 248 226 195 185 172 133
30 0 0 0 0 2 1 2 29 22 482 691 535 389 158 0 80 357 642 576 697 1074 1165 1143 1114 1121 1050 1026 1067 1252 1348 1121 971 933 892 875 782 1309 1803 1655 1566 1581 1564 1578 1562 1532 1490 1429 1393 1288 1361 1390 1388 1421 1384 1212 1244 1267 1339 1296 1269 1110 1044 959 818 878 884 820 887 983 980 943 832 759 615 520 482 442 383 327 304 305 242 233 242 283
34 48 0 0 259 102 3 3 47 517 536 600 432 380 474 587 635 800 867 695 766 954 1018 968 1039 973 942 1003 1170 1302 1382 1142 1136 1070 812 590 644 1143 1511 1585 1460 1438 1441 1539 1564 1514 1393 1381 1351 1290 1309 1271 1339 1289 1249 1227 1149 1190 1117 1128 1075 1105 1026 844 884 946 937 887 956 961 928 962 972 866 751 656 556 433 385 390 322 280 231 203 179 176
37 50 99 71 161 28 4 0 74 209 138 271 383 534 563 791 843 891 898 799 861 886 901 1055 1075 1061 1164 1214 1175 1116 1207 1246 1187 992 861 579 579 104 1181 1428 922 890 975 992 1069 1175 1159 1279 1299 1296 1259 1254 1241 1302 1250 1155 1079 1056 1053 1032 1059 1050 918 797 960 1047 992 910 919 889 824 888 933 932 832 712 514 291 220 268 344 354 256 247 267 272
18 17 29 97 98 51 40 99 196 180 15 13 34 395 699 744 843 854 871 994 1111 1081 1009 970 924 999 1124 1156 1166 1160 1153 1135 1226 955 614 473 219 76 926 990 847 857 950 968 1057 1048 1175 1229 1268 1341 1307 1165 1250 1206 1111 956 886 943 951 927 884 887 753 829 1016 1008 985 957 919 867 834 849 848 805 730 582 421 269 206 98 89 50 71 82 100 98
87 29 25 68 120 70 79 64 70 37 118 130 124 188 253 472 771 913 952 1054 1024 907 892 842 804 860 865 867 920 1173 1204 1146 1152 610 433 486 506 611 577 967 957 719 950 1079 1111 1159 1141 1225 1136 1189 1170 1144 1040 1169 1124 989 752 814 772 774 728 753 816 899 914 892 886 901 874 811 798 789 692 692 637 425 369 292 218 222 148 128 89 102 107 87
3 1 52 19 97 56 35 30 52 36 130 174 110 103 190 345 777 866 761 620 700 778 793 931 992 942 747 595 551 664 726 754 649 400 455 564 738 808 863 841 823 709 875 910 834 849 952 961 816 756 901 982 965 837 728 728 757 738 698 766 810 802 817 806 777 770 772 756 733 752 745 676 555 558 564 378 305 269 219 213 240 214 159 56 96 104
1 14 4 65 117 44 49 72 31 109 57 81 121 103 126 224 178 343 560 523 538 541 523 667 667 828 764 581 536 623 583 518 470 504 586 666 556 718 893 863 813 930 884 846 868 845 900 822 815 860 694 727 709 774 797 876 869 752 674 636 669 703 741 720 623 611 689 658 636 668 582 565 594 597 521 383 320 296 209 160 154 134 38 77 60 34
23 4 3 15 4 20 83 77 64 77 51 46 27 52 37 81 40 40 147 249 300 305 256 364 434 633 604 546 646 683 563 426 535 606 545 632 702 689 814 732 644 663 805 845 864 908 880 843 759 720 729 629 773 720 640 650 770 823 741 689 664 598 548 590 649 680 626 544 532 541 563 572 630 646 548 390 278 228 165 0 63 79 79 90 65 13
94 91 50 19 81 53 34 23 75 47 4 3 13 12 127 43 56 18 14 120 41 92 337 364 219 331 506 546 656 693 639 489 304 456 468 534 668 729 793 743 675 696 748 820 911 950 902 866 815 633 643 615 555 556 575 558 586 604 636 676 682 653 618 622 600 500 417 425 437 448 478 548 612 680 570 434 349 245 128 88 109 144 126 82 45 0
Wind_Speed
nan nan nan nan nan nan nan nan nan nan nan nan nan nan nan nan nan nan nan nan nan nan nan nan nan nan nan nan nan nan nan nan nan nan nan nan nan nan nan 56 58 60 62 61 64 66 62 56 51 51 55 54 51 48 45 43 38 34 32 32 33 33 33 36 37 38 39 37 36 36 37 35 31 32 30 28 27 28 27 27 26 26 26 26 26 24
nan nan nan nan nan nan nan nan nan nan nan nan nan nan nan nan nan nan nan nan nan nan nan nan nan nan nan nan nan nan nan nan nan nan nan nan nan nan nan 51 55 57 60 62 63 63 59 52 50 51 52 50 49 44 42 39 34 31 31 31 32 33 34 36 37 38 38 35 35 36 35 34 31 32 30 27 27 28 27 28 28 26 27 28 27 26
nan nan nan nan nan nan nan nan nan nan nan nan nan nan nan nan nan nan nan nan nan nan nan nan nan nan nan nan nan nan nan nan nan nan nan nan nan nan nan nan 55 56 58 59 61 61 57 52 50 51 49 44 45 42 38 33 31 29 29 30 32 33 34 35 37 39 37 35 35 35 34 34 31 26 27 28 28 28 29 27 27 28 29 29 28 26
nan nan nan nan nan nan nan nan nan nan nan nan nan nan nan nan nan nan nan nan nan nan nan nan nan nan nan nan nan nan nan nan nan nan nan nan nan nan nan nan 53 55 57 56 57 59 56 51 49 50 46 41 40 37 32 29 28 26 28 31 32 33 34 35 37 38 36 36 36 36 36 33 31 28 28 29 28 29 29 27 26 28 30 30 29 27
nan nan nan nan nan nan nan nan nan nan nan nan nan nan nan nan nan nan nan nan nan nan nan nan nan nan nan nan nan nan nan nan nan nan nan nan nan nan nan nan 52 55 56 55 56 58 54 50 49 48 43 39 37 33 28 25 24 24 29 31 31 33 34 35 37 36 37 39 37 35 34 32 30 26 28 29 27 27 27 28 28 30 30 29 29 28
nan nan nan nan nan nan nan nan nan nan nan nan nan nan nan nan nan nan nan nan nan nan nan nan nan nan nan nan nan nan nan nan nan nan nan nan nan nan nan 48 49 54 57 58 56 54 50 50 52 47 40 37 34 31 25 22 22 27 30 31 31 33 34 34 34 34 36 34 34 33 32 31 29 29 29 30 30 28 28 29 29 30 31 30 29 28
nan nan nan nan nan nan nan nan nan nan nan nan nan nan nan nan nan nan nan nan nan nan nan nan nan nan nan nan nan nan nan nan nan nan nan nan nan nan nan 49 50 54 56 57 54 50 47 49 51 44 38 36 33 28 24 21 23 27 29 29 31 33 33 32 30 31 32 32 30 31 30 30 31 31 26 26 27 29 28 29 31 32 31 30 30 27
nan nan nan nan nan nan nan nan nan nan nan nan nan nan nan nan nan nan nan nan nan nan nan nan nan nan nan nan nan nan nan nan nan nan nan nan nan nan nan 50 51 53 50 46 44 41 41 47 50 43 38 36 32 28 24 22 24 25 27 29 31 31 31 29 28 28 30 30 28 28 29 30 30 29 28 29 29 29 30 31 32 32 31 30 28 29
nan nan nan nan nan nan nan nan nan nan nan nan nan nan nan nan nan nan nan nan nan nan nan nan nan nan nan nan nan nan nan nan nan nan nan nan nan nan nan 52 53 51 45 42 40 38 39 45 47 43 37 34 33 28 24 23 23 24 27 29 29 29 29 27 27 27 28 27 27 28 30 30 28 29 29 30 30 31 30 32 32 32 29 28 28 28
nan nan nan nan nan nan nan nan nan nan nan nan nan nan nan nan nan nan nan nan nan nan nan nan nan nan nan nan nan nan nan nan nan nan nan nan nan nan nan 51 53 51 47 46 45 39 40 45 46 41 37 33 30 27 26 24 24 26 27 28 28 28 28 27 27 27 28 28 29 30 31 34 31 32 32 32 31 31 31 33 32 30 28 27 27 27
nan nan nan nan nan nan nan nan nan nan nan nan nan nan nan nan nan nan nan nan nan nan nan nan nan nan nan nan nan nan nan nan nan nan nan nan nan nan nan 49 49 49 48 45 43 39 41 46 47 43 38 33 30 29 26 24 24 26 28 29 28 27 28 27 27 28 29 29 30 31 32 34 35 35 35 33 31 31 31 32 31 30 27 25 24 25
nan nan nan nan nan nan nan nan nan nan nan nan nan nan nan nan nan nan nan nan nan nan nan nan nan nan nan nan nan nan nan nan nan nan nan nan nan nan 46 45 46 46 45 44 42 40 44 47 45 41 36 33 31 29 25 23 25 27 29 30 31 29 28 28 28 29 29 31 31 31 33 34 34 35 33 33 32 32 32 31 30 28 26 24 23 24
nan nan nan nan nan nan nan nan nan nan nan nan nan nan nan nan nan nan nan nan nan nan nan nan nan nan nan nan nan nan nan nan nan nan nan nan nan nan 43 43 42 42 44 44 42 42 43 44 42 37 33 32 29 25 23 24 25 27 30 31 31 30 30 29 30 30 31 31 30 31 32 32 31 31 31 31 31 31 31 29 28 27 25 23 24 24
nan nan nan nan nan nan nan nan nan nan nan nan nan nan nan nan nan nan nan nan nan nan nan nan nan nan nan nan nan nan nan nan nan nan nan nan nan nan 42 40 40 40 41 42 41 41 42 41 38 35 32 30 26 22 21 24 26 27 30 31 31 31 32 32 31 31 31 30 31 30 30 29 28 28 28 28 30 29 28 26 26 nan 23 23 23 24
nan nan nan nan nan nan nan nan nan nan nan nan nan nan nan nan nan nan nan nan nan nan nan nan nan nan nan nan nan nan nan nan nan nan nan nan nan nan 39 39 40 40 39 40 39 39 40 38 36 32 29 27 24 21 21 24 26 28 29 31 32 33 34 32 31 30 31 30 30 29 28 28 27 27 26 26 28 29 28 25 25 22 20 21 22 24
nan nan nan nan nan nan nan nan nan nan nan nan nan nan nan nan nan nan nan nan nan nan nan nan nan nan nan nan nan nan nan nan nan nan nan nan nan nan 37 38 39 39 38 38 38 40 40 36 32 28 27 25 23 21 22 25 28 28 29 31 32 34 34 32 30 29 30 29 28 28 29 28 28 27 27 27 27 27 27 26 nan 22 21 21 23 23
nan nan nan nan nan nan nan nan nan nan nan nan nan nan nan nan nan nan nan nan nan nan nan nan nan nan nan nan nan nan nan nan nan nan nan nan nan nan 36 36 37 37 38 39 40 40 38 33 28 26 25 23 20 20 22 25 26 28 31 33 34 36 34 30 29 28 28 28 28 28 28 28 28 28 28 28 28 27 25 nan nan 22 22 23 23 nan
nan nan nan nan nan nan nan nan nan nan nan nan nan nan nan nan nan nan nan nan nan nan nan nan nan nan nan nan nan nan nan nan nan nan nan nan nan nan 36 35 37 38 38 40 40 39 36 31 27 24 22 20 18 19 23 26 28 30 32 34 35 35 32 28 27 27 27 27 26 27 28 27 27 27 27 28 28 25 nan nan 22 22 24 23 22 nan
nan nan nan nan nan nan nan nan nan nan nan nan nan nan nan nan nan nan nan nan nan nan nan nan nan nan nan nan nan nan nan nan nan nan nan nan nan nan nan 36 39 40 40 42 40 37 35 30 25 22 20 17 18 22 27 30 31 32 33 33 34 32 28 26 25 24 25 25 23 24 25 25 26 26 27 26 25 22 21 nan 22 23 24 23 21 nan
nan nan nan nan nan nan nan nan nan nan nan nan nan nan nan nan nan nan nan nan nan nan nan nan nan nan nan nan nan nan nan nan nan nan nan nan nan nan nan 34 40 40 39 40 39 35 32 28 23 21 18 17 19 25 30 32 31 32 33 33 31 28 25 24 23 24 25 23 22 23 22 22 25 26 27 25 23 20 nan nan nan 22 22 20 18 nan
nan nan nan nan nan nan nan nan nan nan nan nan nan nan nan nan nan nan nan nan nan nan nan nan nan nan nan nan nan nan nan nan nan nan nan nan nan nan nan 34 37 38 37 38 37 33 29 26 24 21 18 19 26 31 33 32 30 32 32 30 27 26 24 22 22 24 23 22 22 23 22 23 24 25 24 23 21 nan nan nan 17 17 17 17 nan nan
nan nan nan nan nan nan nan nan nan nan nan nan nan nan nan nan nan nan nan nan nan nan nan nan nan nan nan nan nan nan nan nan nan nan nan nan nan nan nan 35 36 35 35 36 34 30 27 25 24 23 21 25 30 31 30 30 32 31 29 26 25 24 22 22 23 23 22 21 22 22 22 22 22 23 21 21 19 18 16 15 nan 16 16 nan nan nan
nan nan nan nan nan nan nan nan nan nan nan nan nan nan nan nan nan nan nan nan nan nan nan nan nan nan nan nan nan nan nan nan nan nan nan nan nan nan 31 30 30 32 32 31 29 27 25 24 24 22 22 24 27 28 29 30 30 29 27 26 23 22 21 22 23 22 21 21 20 21 21 21 20 20 19 19 16 16 15 15 16 16 nan nan nan nan
nan nan nan nan nan nan nan nan nan nan nan nan nan nan nan nan nan nan nan nan nan nan nan nan nan nan nan nan nan nan nan nan nan nan nan nan nan nan 33 30 28 30 31 28 25 25 24 25 25 24 24 27 28 28 28 30 30 28 26 24 22 20 21 22 21 21 21 20 19 20 21 20 19 18 17 16 15 16 16 17 17 nan nan nan nan nan
nan nan nan nan nan nan nan nan nan nan nan nan nan nan nan nan nan nan nan nan nan nan nan nan nan nan nan nan nan nan nan nan nan nan nan nan nan 33 33 32 31 32 31 27 25 25 26 24 23 22 24 25 26 27 29 29 27 26 25 23 21 19 21 21 20 20 20 19 19 19 19 19 18 16 15 15 15 17 18 19 18 nan nan nan nan nan
nan nan nan nan nan nan nan nan nan nan nan nan nan nan nan nan nan nan nan nan nan nan nan nan nan nan nan nan nan nan nan nan nan nan nan nan 37 34 33 32 32 31 29 28 27 26 24 21 21 23 24 25 25 26 26 26 26 25 23 22 20 20 20 20 19 20 19 18 19 18 18 17 16 16 15 15 16 18 18 18 17 nan nan nan nan nan
nan nan nan nan nan nan nan nan nan nan nan nan nan nan nan nan nan nan nan nan nan nan nan nan nan nan 28 nan nan nan nan nan nan nan nan 39 37 35 33 31 28 27 28 29 27 23 23 22 22 23 25 25 25 25 24 24 25 24 23 22 20 20 20 20 20 20 18 17 18 17 17 16 14 14 15 15 16 17 17 16 15 nan nan nan nan nan
14 nan nan nan nan nan nan nan nan nan nan nan 46 nan nan nan nan nan nan nan nan nan 34 28 nan nan 27 nan nan nan nan nan nan 27 30 37 36 34 32 28 26 26 27 28 26 24 21 20 23 25 25 25 24 23 22 22 23 23 23 22 21 20 20 19 20 19 18 17 17 16 16 15 14 14 14 14 16 16 16 16 nan nan nan nan nan nan
nan nan nan nan nan nan nan nan nan nan nan 55 nan nan nan nan nan nan nan nan nan nan 30 36 33 31 39 43 41 40 38 nan nan 28 29 31 35 36 31 28 26 25 26 26 24 21 20 20 22 23 24 23 23 22 22 22 23 24 22 21 20 20 20 20 20 18 17 16 16 15 15 15 15 14 14 15 15 16 16 15 nan nan nan nan nan nan
nan nan nan nan nan nan nan nan nan nan nan nan nan nan nan nan nan nan 23 36 43 36 33 34 36 36 38 42 42 42 35 35 31 35 32 32 34 34 31 28 25 23 23 24 22 19 18 19 22 23 23 22 21 20 20 22 22 21 21 21 20 20 20 21 19 18 17 16 15 15 16 17 16 15 15 15 15 16 16 15 nan nan nan nan nan nan
nan nan nan nan nan nan nan nan nan nan nan nan nan nan nan nan nan nan 21 nan nan 40 nan nan 37 40 38 36 38 34 34 nan nan 37 34 32 32 32 31 28 25 22 22 22 21 19 19 19 22 23 22 21 21 19 18 20 20 20 21 22 21 21 20 20 18 17 16 16 16 16 17 17 16 16 16 15 15 16 17 16 nan nan nan nan nan nan
nan nan nan nan nan nan nan nan nan nan nan nan nan nan nan nan nan 20 30 nan nan nan nan nan 41 37 36 38 34 35 38 41 35 35 35 30 28 29 29 26 23 22 21 21 20 19 18 18 20 20 19 21 22 20 18 19 20 21 22 22 21 20 20 19 17 16 15 15 15 16 18 17 17 16 16 16 16 17 17 18 nan nan nan nan nan nan
nan nan nan nan nan nan nan nan nan nan nan nan nan nan nan nan nan nan nan nan nan nan nan nan 36 32 33 34 37 37 40 40 39 34 32 30 27 27 27 24 23 21 21 21 20 18 16 16 17 18 19 21 20 18 18 21 23 22 24 22 20 20 19 18 17 16 15 15 15 16 17 17 17 18 17 17 18 18 19 20 nan nan nan nan nan nan
16 nan nan nan nan nan nan nan nan nan nan nan nan nan nan nan nan nan nan nan nan nan nan nan 32 32 35 36 35 36 39 36 36 32 29 28 26 26 26 25 22 20 21 20 20 18 17 18 18 19 19 20 19 20 22 24 27 26 25 22 21 22 20 19 17 17 17 16 15 16 18 18 18 18 18 19 19 20 20 22 22 nan nan nan nan nan
nan nan nan nan nan nan nan nan nan nan nan nan nan nan nan nan nan nan nan nan nan nan nan nan 34 35 35 32 33 35 35 35 36 36 36 36 31 30 28 25 21 20 19 19 19 20 19 18 20 22 21 20 21 24 26 27 30 28 25 23 23 22 21 20 19 19 19 18 16 17 17 18 18 18 19 19 19 21 22 22 23 23 nan nan nan nan
nan nan nan nan nan nan nan nan nan nan nan nan nan nan nan nan nan nan nan nan nan nan nan nan 36 nan nan 37 35 33 35 33 31 32 34 40 40 32 28 24 20 17 16 16 19 19 19 19 19 20 20 23 25 25 26 28 28 27 24 23 24 22 22 22 22 21 21 19 18 17 17 17 18 18 19 19 20 21 22 22 23 24 nan nan nan nan
nan nan nan nan nan nan nan nan nan nan nan nan nan nan nan nan nan nan nan nan nan nan nan nan nan nan 40 37 34 34 34 33 30 29 33 36 36 39 28 23 20 14 15 18 19 19 19 21 22 22 24 25 26 26 26 27 26 25 24 23 23 22 22 22 21 20 19 19 18 18 18 18 18 18 19 20 21 22 22 23 24 24 nan nan nan nan
3 nan nan nan nan nan nan nan nan nan nan nan nan nan nan nan nan nan nan nan nan nan nan nan nan 35 37 34 33 32 33 32 27 24 28 29 30 31 33 34 24 19 22 25 25 25 25 24 24 24 26 27 27 26 26 26 25 24 23 21 21 21 19 18 17 17 17 17 19 20 20 20 20 20 21 22 23 23 23 24 25 25 nan nan nan nan
8 nan nan nan nan nan nan nan nan nan nan nan nan nan nan nan nan nan nan nan nan nan nan 28 26 28 28 27 29 31 28 23 19 20 22 23 24 27 32 33 31 24 24 24 24 24 25 24 25 27 28 28 27 26 26 26 25 23 21 19 18 18 15 13 13 14 14 16 19 20 20 21 22 22 23 24 24 25 25 25 25 25 25 nan nan nan
nan nan nan nan nan nan nan nan nan nan nan 38 45 41 29 23 nan nan nan nan nan 38 nan nan 27 26 27 28 29 28 21 15 15 17 21 22 22 24 25 26 26 25 26 27 27 27 27 28 30 28 27 26 26 26 25 24 23 21 19 17 16 14 11 11 12 13 15 17 18 18 19 20 21 21 23 24 24 24 25 25 25 26 26 27 27 29
nan nan nan nan nan nan nan nan nan nan nan 31 38 43 43 30 nan nan nan nan 34 41 nan 33 28 27 28 28 26 22 17 15 15 16 20 21 23 25 25 25 24 25 28 30 31 31 30 28 28 28 27 28 27 25 23 23 23 21 19 17 16 14 12 13 15 16 17 19 19 19 20 20 21 22 22 23 25 25 25 26 27 28 29 30 30 31
nan nan nan nan nan nan nan nan nan nan 24 29 37 39 38 nan nan nan 22 20 31 41 38 32 31 32 30 29 24 20 17 17 19 22 21 20 20 23 27 28 28 30 32 34 34 34 32 31 31 30 29 28 25 24 23 24 23 21 19 19 18 17 18 19 20 21 22 23 23 22 22 22 21 22 23 24 25 26 26 26 28 29 30 31 30 30
nan nan nan nan nan nan nan nan nan nan 25 35 40 33 35 nan nan 38 32 30 33 36 34 33 31 30 31 32 28 25 26 30 33 36 39 41 41 37 34 34 34 34 35 36 37 36 35 33 30 29 28 26 25 24 23 24 23 21 21 21 21 22 24 25 26 27 27 26 25 24 24 23 24 23 23 23 23 24 24 23 24 24 27 29 29 30
nan nan nan nan 15 12 nan nan nan 25 32 32 29 23 27 32 38 43 40 41 39 37 36 37 36 32 33 34 34 34 32 29 29 32 38 40 42 46 48 46 46 44 44 42 40 37 35 34 31 29 27 26 24 23 23 22 22 21 23 23 23 26 27 28 29 29 28 26 25 24 24 25 25 24 24 25 26 26 27 26 25 24 25 27 28 28
nan nan nan nan 18 nan nan nan nan 31 29 28 26 26 28 28 35 39 42 43 42 41 38 40 38 40 39 40 39 37 36 32 27 27 31 35 40 41 39 36 37 40 40 38 36 34 33 32 29 27 26 26 25 24 22 22 23 23 24 23 25 27 29 29 30 29 28 27 26 25 25 26 26 26 26 27 29 30 28 29 29 28 26 26 25 25
nan nan nan nan nan nan nan nan 20 26 nan nan nan 29 30 32 31 37 39 41 41 39 39 38 38 41 41 40 40 36 33 28 27 26 28 30 34 nan 33 33 35 37 35 33 33 30 30 30 28 26 25 25 24 24 23 23 24 25 24 26 27 28 29 30 29 28 29 28 27 27 27 28 27 27 27 27 27 28 28 nan nan nan nan nan 25 nan
nan nan nan nan 16 nan nan nan nan nan 29 33 35 37 35 27 30 35 39 40 39 39 40 37 35 36 37 37 36 33 31 30 29 24 27 29 33 32 29 23 28 35 35 29 30 31 29 27 26 25 25 25 25 25 24 25 24 26 29 28 28 28 29 29 30 29 28 28 28 28 28 29 27 27 26 27 27 27 27 28 30 30 nan 28 29 nan
nan nan nan nan nan nan nan nan nan nan 24 30 31 32 30 34 38 40 41 42 44 42 41 38 38 37 35 36 34 34 31 29 28 24 23 26 28 27 25 23 26 28 27 32 30 27 27 27 25 24 25 26 26 26 26 27 26 28 30 30 29 29 30 29 29 29 28 28 28 27 28 28 30 30 27 27 29 29 28 27 29 30 30 nan nan 33
nan nan nan nan 11 nan nan nan nan 20 nan nan 31 28 29 33 34 36 36 41 46 46 44 43 40 37 35 34 34 32 32 29 26 23 24 26 26 23 20 21 26 27 26 29 32 28 27 28 27 25 26 26 26 27 27 27 28 29 30 30 30 31 31 29 28 28 28 28 27 28 29 29 29 29 29 29 29 28 28 29 29 30 nan nan nan nan
nan nan nan nan nan nan nan nan nan nan nan nan nan nan nan nan nan nan 36 37 42 43 41 44 42 40 42 39 35 32 32 30 29 27 26 25 25 23 22 23 26 28 27 30 35 34 31 29 27 27 25 24 25 26 26 26 27 29 30 31 30 31 32 30 28 28 29 29 29 30 30 30 30 30 30 31 31 31 30 nan nan nan nan nan nan nan
nan nan nan nan nan nan nan nan nan nan nan nan nan nan 32 nan nan nan nan 30 nan nan 34 44 43 43 43 41 38 37 34 31 28 28 27 26 25 24 25 26 27 28 27 31 37 36 34 30 28 26 25 24 25 24 25 25 26 27 29 30 31 32 32 31 29 29 30 31 30 32 32 32 32 31 31 31 32 32 32 nan 31 34 31 nan nan nan
Wind_Direction
nan nan nan nan nan nan nan nan nan nan nan nan nan nan nan nan nan nan nan nan nan nan nan nan nan nan nan nan nan nan nan nan nan nan nan nan nan nan nan 257 263 266 268 270 272 272 273 276 278 276 273 271 276 279 282 284 286 287 285 277 271 267 268 269 270 272 276 278 282 283 288 291 295 288 290 292 297 300 304 304 301 298 297 300 302 302
nan nan nan nan nan nan nan nan nan nan nan nan nan nan nan nan nan nan nan nan nan nan nan nan nan nan nan nan nan nan nan nan nan nan nan nan nan nan nan 255 263 262 262 267 266 269 272 275 277 274 271 274 279 279 283 288 289 284 278 273 266 262 265 266 267 270 274 275 282 284 289 288 286 293 296 302 303 305 305 302 302 299 299 302 303 303
nan nan nan nan nan nan nan nan nan nan nan nan nan nan nan nan nan nan nan nan nan nan nan nan nan nan nan nan nan nan nan nan nan nan nan nan nan nan nan nan 264 261 263 267 268 271 273 277 276 273 272 275 279 282 285 287 284 281 274 266 261 260 262 263 265 269 272 274 279 283 286 286 287 293 303 306 307 305 304 303 304 303 303 303 301 300
nan nan nan nan nan nan nan nan nan nan nan nan nan nan nan nan nan nan nan nan nan nan nan nan nan nan nan nan nan nan nan nan nan nan nan nan nan nan nan nan 266 266 267 268 268 271 272 275 273 269 272 276 278 281 280 285 285 275 267 259 259 257 259 262 265 268 271 273 274 278 284 288 296 309 310 305 305 303 303 306 306 304 304 301 299 298
nan nan nan nan nan nan nan nan nan nan nan nan nan nan nan nan nan nan nan nan nan nan nan nan nan nan nan nan nan nan nan nan nan nan nan nan nan nan nan nan 271 272 271 267 264 266 269 273 272 271 274 275 280 284 284 285 282 267 265 260 259 257 260 263 266 271 271 272 277 281 281 288 293 300 303 301 302 304 305 306 306 306 303 301 299 299
nan nan nan nan nan nan nan nan nan nan nan nan nan nan nan nan nan nan nan nan nan nan nan nan nan nan nan nan nan nan nan nan nan nan nan nan nan nan nan 257 263 266 268 268 266 268 272 272 268 268 275 277 278 284 283 279 271 263 260 260 258 256 258 265 267 273 274 280 288 294 296 301 304 305 305 307 309 308 309 310 308 303 302 301 299 298
nan nan nan nan nan nan nan nan nan nan nan nan nan nan nan nan nan nan nan nan nan nan nan nan nan nan nan nan nan nan nan nan nan nan nan nan nan nan nan 252 260 262 264 267 265 265 268 270 271 273 275 274 277 279 278 272 264 262 260 259 258 257 260 265 267 276 279 288 297 305 307 304 305 305 302 302 303 305 306 306 304 303 301 299 298 297
nan nan nan nan nan nan nan nan nan nan nan nan nan nan nan nan nan nan nan nan nan nan nan nan nan nan nan nan nan nan nan nan nan nan nan nan nan nan nan 252 259 263 267 269 269 271 273 273 274 278 278 273 275 277 274 265 261 264 262 258 256 257 264 268 270 280 286 294 300 303 296 298 303 306 308 311 309 305 305 303 304 301 297 292 290 291
nan nan nan nan nan nan nan nan nan nan nan nan nan nan nan nan nan nan nan nan nan nan nan nan nan nan nan nan nan nan nan nan nan nan nan nan nan nan nan 253 263 266 269 272 273 274 274 274 271 273 276 271 271 274 272 263 262 260 255 257 256 260 266 269 275 281 288 292 295 294 292 294 296 300 304 307 306 306 304 301 301 299 294 286 282 285
nan nan nan nan nan nan nan nan nan nan nan nan nan nan nan nan nan nan nan nan nan nan nan nan nan nan nan nan nan nan nan nan nan nan nan nan nan nan nan 257 265 267 268 273 278 276 273 271 271 273 274 275 274 270 267 264 261 258 256 259 262 261 266 269 276 283 286 287 288 290 294 297 297 297 298 301 306 307 305 302 301 297 293 289 284 280
nan nan nan nan nan nan nan nan nan nan nan nan nan nan nan nan nan nan nan nan nan nan nan nan nan nan nan nan nan nan nan nan nan nan nan nan nan nan nan 261 265 268 269 270 274 274 272 270 271 273 275 277 273 265 267 269 266 261 263 261 267 267 264 270 278 282 283 282 287 291 297 298 298 300 301 302 304 305 304 304 301 297 294 291 288 281
nan nan nan nan nan nan nan nan nan nan nan nan nan nan nan nan nan nan nan nan nan nan nan nan nan nan nan nan nan nan nan nan nan nan nan nan nan nan 250 261 268 269 269 269 268 266 266 266 269 272 274 277 278 272 270 268 264 263 264 262 265 267 268 272 277 280 279 283 290 292 294 296 300 303 305 306 307 308 307 306 303 299 295 291 285 279
nan nan nan nan nan nan nan nan nan nan nan nan nan nan nan nan nan nan nan nan nan nan nan nan nan nan nan nan nan nan nan nan nan nan nan nan nan nan 256 267 270 269 270 268 265 264 264 267 272 276 278 277 280 280 274 267 264 262 262 265 267 267 269 272 275 279 279 286 292 292 294 299 302 304 304 302 301 303 305 306 306 306 303 296 288 286
nan nan nan nan nan nan nan nan nan nan nan nan nan nan nan nan nan nan nan nan nan nan nan nan nan nan nan nan nan nan nan nan nan nan nan nan nan nan 259 266 269 267 267 265 264 264 267 269 271 278 279 277 276 279 273 263 262 260 261 264 266 265 266 269 274 279 280 286 290 291 297 300 302 303 302 301 300 301 303 305 306 nan 312 308 302 295
nan nan nan nan nan nan nan nan nan nan nan nan nan nan nan nan nan nan nan nan nan nan nan nan nan nan nan nan nan nan nan nan nan nan nan nan nan nan 264 264 269 265 261 262 261 263 266 268 272 274 276 276 277 278 267 257 257 259 262 265 268 266 266 270 275 279 281 284 288 291 295 298 300 301 298 298 298 299 304 304 303 303 306 307 305 299
nan nan nan nan nan nan nan nan nan nan nan nan nan nan nan nan nan nan nan nan nan nan nan nan nan nan nan nan nan nan nan nan nan nan nan nan nan nan 259 264 263 261 259 257 256 258 262 266 267 269 272 274 274 273 263 260 257 259 262 264 266 267 269 273 278 280 281 284 287 290 295 297 296 294 293 292 293 297 302 304 nan 304 303 304 302 298
nan nan nan nan nan nan nan nan nan nan nan nan nan nan nan nan nan nan nan nan nan nan nan nan nan nan nan nan nan nan nan nan nan nan nan nan nan nan 255 265 264 260 258 254 255 257 262 261 264 267 270 270 271 267 264 263 260 259 260 264 267 267 270 277 281 282 281 286 290 293 294 294 293 294 296 296 298 299 300 nan nan 305 305 302 299 nan
nan nan nan nan nan nan nan nan nan nan nan nan nan nan nan nan nan nan nan nan nan nan nan nan nan nan nan nan nan nan nan nan nan nan nan nan nan nan 253 264 263 260 258 256 257 262 264 263 264 260 263 271 274 267 256 257 253 252 256 263 267 269 277 280 284 285 286 290 294 295 294 293 293 293 292 293 299 301 nan nan 307 307 306 307 303 nan
nan nan nan nan nan nan nan nan nan nan nan nan nan nan nan nan nan nan nan nan nan nan nan nan nan nan nan nan nan nan nan nan nan nan nan nan nan nan nan 264 261 261 258 256 256 258 258 261 262 262 266 265 261 254 250 251 250 251 255 262 266 272 277 282 283 284 287 293 294 294 295 295 291 289 288 292 299 305 309 nan 312 311 309 307 304 nan
nan nan nan nan nan nan nan nan nan nan nan nan nan nan nan nan nan nan nan nan nan nan nan nan nan nan nan nan nan nan nan nan nan nan nan nan nan nan nan 262 262 262 260 260 259 259 262 266 263 261 262 262 257 251 251 253 252 255 258 264 265 269 274 281 285 287 292 296 293 292 294 290 287 288 291 297 303 309 nan nan nan 312 311 312 309 nan
nan nan nan nan nan nan nan nan nan nan nan nan nan nan nan nan nan nan nan nan nan nan nan nan nan nan nan nan nan nan nan nan nan nan nan nan nan nan nan 263 264 264 263 262 262 262 262 260 255 250 250 247 240 240 244 250 256 255 258 265 269 279 283 287 286 290 294 294 292 293 293 290 287 288 291 297 303 nan nan nan 315 314 312 307 nan nan
nan nan nan nan nan nan nan nan nan nan nan nan nan nan nan nan nan nan nan nan nan nan nan nan nan nan nan nan nan nan nan nan nan nan nan nan nan nan nan 270 267 264 265 264 263 264 260 255 250 244 241 239 243 247 249 249 251 257 262 267 268 274 280 287 289 295 295 292 294 294 291 289 287 289 294 301 307 311 315 315 nan 314 312 nan nan nan
nan nan nan nan nan nan nan nan nan nan nan nan nan nan nan nan nan nan nan nan nan nan nan nan nan nan nan nan nan nan nan nan nan nan nan nan nan nan 265 272 271 268 266 267 268 264 259 252 248 247 248 251 256 256 255 252 255 260 263 267 266 275 282 286 292 296 294 294 296 292 289 289 289 291 299 305 307 310 311 309 308 311 nan nan nan nan
nan nan nan nan nan nan nan nan nan nan nan nan nan nan nan nan nan nan nan nan nan nan nan nan nan nan nan nan nan nan nan nan nan nan nan nan nan nan 263 268 265 260 263 267 264 259 253 247 244 241 240 246 251 254 255 254 257 260 265 268 270 279 285 288 295 296 294 295 294 290 289 290 292 297 302 305 305 307 306 303 304 nan nan nan nan nan
nan nan nan nan nan nan nan nan nan nan nan nan nan nan nan nan nan nan nan nan nan nan nan nan nan nan nan nan nan nan nan nan nan nan nan nan nan 253 258 260 259 262 263 265 263 255 250 246 247 245 245 250 254 254 254 260 265 268 270 269 274 279 285 291 295 295 295 295 292 290 290 291 295 299 304 305 302 302 302 302 303 nan nan nan nan nan
nan nan nan nan nan nan nan nan nan nan nan nan nan nan nan nan nan nan nan nan nan nan nan nan nan nan nan nan nan nan nan nan nan nan nan nan 253 253 255 255 257 261 265 267 263 256 256 253 246 245 247 249 255 257 261 264 269 270 271 273 274 280 287 291 291 293 293 289 287 289 290 290 294 302 304 300 297 300 300 301 301 nan nan nan nan nan
nan nan nan nan nan nan nan nan nan nan nan nan nan nan nan nan nan nan nan nan nan nan nan nan nan nan 182 nan nan nan nan nan nan nan nan 243 248 252 254 256 257 262 268 268 265 260 253 246 250 251 252 255 260 260 264 267 271 268 271 274 277 277 283 286 287 290 289 284 284 286 288 288 291 295 295 293 293 295 297 298 299 nan nan nan nan nan
154 nan nan nan nan nan nan nan nan nan nan nan 149 nan nan nan nan nan nan nan nan nan 174 180 nan nan 186 nan nan nan nan nan nan 240 242 246 248 249 253 255 260 263 260 258 260 262 260 255 251 251 253 258 262 263 264 263 267 266 271 276 277 276 279 280 284 286 284 281 282 284 285 283 284 287 289 285 288 294 296 296 nan nan nan nan nan nan
nan nan nan nan nan nan nan nan nan nan nan 155 nan nan nan nan nan nan nan nan nan nan 178 179 183 201 189 198 200 208 211 nan nan 250 252 253 244 244 250 257 259 260 261 265 267 266 261 254 252 256 258 262 269 270 268 263 263 261 267 270 274 274 281 280 280 279 279 278 280 279 277 273 273 276 282 283 285 290 293 295 nan nan nan nan nan nan
nan nan nan nan nan nan nan nan nan nan nan nan nan nan nan nan nan nan 176 183 181 181 183 185 193 201 197 197 199 201 206 218 229 241 243 247 242 240 250 256 258 261 264 266 268 266 261 259 255 259 259 265 275 272 265 261 264 265 270 274 275 276 277 276 276 274 274 275 275 272 269 269 268 275 278 281 285 286 289 291 nan nan nan nan nan nan
nan nan nan nan nan nan nan nan nan nan nan nan nan nan nan nan nan nan 195 nan nan 176 nan nan 191 193 191 198 202 198 207 nan nan 248 249 250 243 239 244 249 254 259 261 261 263 259 256 253 255 258 263 269 269 266 260 259 262 260 265 267 275 278 273 270 271 272 274 275 274 271 267 267 270 274 279 278 278 280 286 289 nan nan nan nan nan nan
nan nan nan nan nan nan nan nan nan nan nan nan nan nan nan nan nan 192 197 nan nan nan nan nan 192 186 185 194 203 202 211 218 234 252 252 250 249 247 250 252 256 259 260 264 263 261 259 256 258 263 268 266 260 258 259 260 258 261 263 269 276 271 268 267 269 273 275 275 276 273 270 269 273 277 279 277 279 282 283 281 nan nan nan nan nan nan
nan nan nan nan nan nan nan nan nan nan nan nan nan nan nan nan nan nan nan nan nan nan nan nan 185 187 189 193 203 200 211 214 219 235 240 244 250 254 256 258 261 262 265 265 265 265 265 263 261 261 258 253 256 260 262 258 254 260 263 271 271 267 267 268 269 272 275 279 279 275 270 272 275 279 280 279 280 282 280 280 nan nan nan nan nan nan
162 nan nan nan nan nan nan nan nan nan nan nan nan nan nan nan nan nan nan nan nan nan nan nan 181 188 193 200 205 207 217 218 213 208 222 230 230 240 251 259 262 263 261 260 265 262 253 246 244 246 249 248 251 253 251 249 248 253 261 264 267 271 271 272 272 273 275 277 279 277 275 276 278 280 280 278 280 281 281 282 284 nan nan nan nan nan
nan nan nan nan nan nan nan nan nan nan nan nan nan nan nan nan nan nan nan nan nan nan nan nan 190 196 201 203 206 211 224 220 217 216 204 201 209 222 234 246 250 256 258 260 259 253 248 249 249 248 248 247 249 248 249 249 251 258 263 268 271 273 274 274 273 271 273 274 276 279 280 280 280 281 280 281 281 281 284 284 282 282 nan nan nan nan
nan nan nan nan nan nan nan nan nan nan nan nan nan nan nan nan nan nan nan nan nan nan nan nan 183 nan nan 201 202 209 220 216 207 212 210 209 200 204 228 231 242 247 257 255 262 257 255 255 257 255 249 241 244 245 249 252 255 261 266 271 274 273 273 272 272 270 271 272 275 280 281 282 282 282 282 284 282 283 285 284 283 281 nan nan nan nan
nan nan nan nan nan nan nan nan nan nan nan nan nan nan nan nan nan nan nan nan nan nan nan nan nan nan 198 199 201 208 216 212 203 195 208 210 214 201 206 239 238 238 245 245 252 247 249 248 244 241 239 238 241 245 248 251 258 263 268 272 273 275 273 275 275 275 273 272 272 275 278 277 279 280 283 284 284 283 283 283 280 276 nan nan nan nan
120 nan nan nan nan nan nan nan nan nan nan nan nan nan nan nan nan nan nan nan nan nan nan nan nan 187 202 205 205 210 214 211 203 193 201 208 214 220 218 217 223 233 229 232 232 233 238 239 236 235 239 240 241 244 246 252 259 265 269 270 273 277 279 281 283 280 276 273 272 272 274 277 279 282 283 285 286 285 283 280 280 281 nan nan nan nan
154 nan nan nan nan nan nan nan nan nan nan nan nan nan nan nan nan nan nan nan nan nan nan 205 204 196 207 211 208 213 214 206 192 189 194 209 216 232 239 237 232 235 242 244 245 244 243 240 239 235 237 241 244 244 248 256 263 266 269 270 274 278 284 288 289 289 284 277 272 273 276 280 284 286 287 289 290 289 289 288 285 282 281 nan nan nan
nan nan nan nan nan nan nan nan nan nan nan 173 186 190 181 195 nan nan nan nan nan 163 nan nan 199 196 195 208 213 216 223 205 185 186 202 212 216 213 236 249 246 245 246 244 242 242 239 236 236 236 240 243 244 246 255 260 262 264 266 266 268 273 279 286 287 282 279 280 280 279 279 281 289 294 296 296 293 290 288 283 282 283 282 280 279 281
nan nan nan nan nan nan nan nan nan nan nan 165 175 184 188 202 nan nan nan nan 167 178 nan 201 198 193 199 206 206 205 199 198 184 194 202 212 221 221 218 227 240 246 248 248 245 241 238 237 239 239 239 237 241 248 256 258 260 263 263 260 259 265 262 266 269 273 279 282 283 286 293 296 299 302 298 294 292 290 287 283 281 278 278 279 279 281
nan nan nan nan nan nan nan nan nan nan 148 159 165 174 192 nan nan nan 166 174 185 186 186 203 197 190 202 210 204 201 195 193 207 210 203 205 223 217 231 241 239 233 232 236 240 239 235 233 234 237 237 241 243 246 248 255 261 262 259 258 260 259 260 265 268 270 276 283 286 289 295 300 299 296 292 292 295 297 294 287 284 280 276 274 278 281
nan nan nan nan nan nan nan nan nan nan 155 169 162 170 191 nan nan 200 193 196 204 204 205 204 206 200 211 215 214 215 213 213 215 215 208 202 201 206 216 230 235 238 238 235 230 229 232 229 231 233 235 237 244 243 247 256 262 264 260 260 261 263 267 269 271 275 280 286 292 295 296 293 291 291 290 294 296 296 294 289 283 276 273 274 275 278
nan nan nan nan 166 156 nan nan nan 155 148 157 176 177 174 188 197 201 205 209 209 214 215 218 216 217 218 221 221 220 221 222 219 223 219 215 215 214 218 214 213 214 216 215 221 220 222 224 222 225 231 234 236 244 249 258 260 258 261 263 263 267 269 272 275 280 286 291 294 292 290 290 291 289 287 288 285 284 287 287 285 282 280 280 280 280
nan nan nan nan 170 nan nan nan nan 155 153 157 177 179 159 174 192 197 205 211 215 211 213 221 219 218 222 230 229 231 230 230 229 225 236 237 232 223 216 220 225 217 213 204 200 208 212 215 219 223 226 232 233 238 249 252 258 260 265 264 266 270 272 275 278 283 287 291 293 291 288 286 287 287 283 284 287 289 289 288 290 288 285 285 284 286
nan nan nan nan nan nan nan nan 157 169 nan nan nan 184 174 165 185 194 200 206 206 206 211 219 217 219 223 231 233 228 233 238 241 240 235 240 251 nan 226 216 215 215 203 192 186 196 205 215 217 223 232 233 236 238 242 246 256 264 257 259 267 273 276 280 283 286 292 293 294 293 290 288 287 287 288 288 288 291 292 nan nan nan nan nan 287 nan
nan nan nan nan 174 nan nan nan nan nan 178 184 187 192 188 165 186 192 196 200 200 203 207 206 212 215 220 226 232 234 230 228 235 232 240 241 235 233 245 235 202 205 191 182 184 191 205 213 217 223 227 233 232 239 243 250 253 257 259 265 269 274 278 283 287 289 291 293 291 291 291 292 290 288 289 288 287 287 286 286 287 290 nan 289 290 nan
nan nan nan nan nan nan nan nan nan nan 193 190 188 190 182 188 193 188 192 197 194 197 201 201 209 212 218 225 228 234 233 234 241 238 232 235 241 232 228 232 218 199 185 180 183 203 206 209 217 223 227 230 232 239 246 251 255 257 265 268 272 275 279 283 288 291 292 291 290 289 290 291 293 294 291 291 292 290 289 291 294 295 295 nan nan 292
nan nan nan nan 191 nan nan nan nan 183 nan nan 186 178 188 195 194 195 196 197 196 193 199 201 205 207 215 223 228 234 237 234 236 237 234 232 232 228 219 211 209 202 189 195 197 208 207 209 213 220 223 227 232 240 247 254 254 261 268 270 275 280 283 285 286 288 288 287 286 286 287 290 293 294 294 294 293 289 289 295 295 290 nan nan nan nan
nan nan nan nan nan nan nan nan nan nan nan nan nan nan nan nan nan nan 194 208 207 196 197 205 209 209 213 217 224 231 239 237 235 238 235 226 225 219 212 205 207 205 192 198 208 210 212 216 217 216 225 232 237 246 255 258 258 264 268 274 278 281 283 285 285 285 287 286 286 286 288 290 292 293 295 296 295 288 278 nan nan nan nan nan nan nan
nan nan nan nan nan nan nan nan nan nan nan nan nan nan 184 nan nan nan nan 202 nan nan 195 208 212 214 215 217 221 229 235 241 239 239 237 230 224 219 219 220 217 207 195 197 207 214 215 216 218 225 227 231 238 250 256 259 261 270 273 277 280 282 283 284 283 285 287 288 290 292 293 293 293 294 294 294 292 289 287 nan 271 260 266 nan nan nan